Portada
METAR-TAF:

METAR-TAF

Aeroports :

Fitchburg, Massachusetts, Estats Units d'Amèrica

latitud: 42-33-07N, longitud: 071-45-21W, altitud: 106 m

Observació

L'informe es va fer fa 19 minuts, a les 19:52 UTC
Vent 8 kt del Oest/Nord-Oest
Temperatura -2°C
Humitat 31%
Pressió 1025 hPa
Visibilitat: 16.1 km
Cel clar

METAR: KFIT 131952Z AUTO 29008KT 10SM CLR M02/M17 A3027 RMK AO2 SLP258 T10221167

Hora: 15:11 (20:11 UTC)


TAF: manca

Observacions i pronòstics meteorològics de més de 4000 aeroports (METAR i TAF).

Les estacions disponibles són els punts grocs i vermells al mapa.

Posi el ratolí al punt desitjat per veure el nom de l'estació.

Feu clic per veure les observacions i els pronòstics meteorològics.

Per canviar el mapa: feu clic els botons verds amb una creu de color negre per apropar; al botó verd amb un guió per allunyar la imatge; o en les fletxes verdes per a mapes adjacents.


METAR-TAF: